Lapse_Rate
5.6 5.9 6.2 6.2 6.2 6.3 6.4 6.7 6.6 6.4 6.1 6.3 5.9 5.8 5.9 5.9 6.0 6.1 6.1 6.2 6.2 6.2
5.8 5.7 6.1 6.2 6.3 6.5 6.5 6.7 6.6 6.2 6.0 6.2 5.8 6.0 6.0 5.8 5.8 5.9 6.1 6.2 6.2 6.1
6.0 6.0 6.0 6.2 6.4 6.6 6.5 6.6 6.5 6.1 6.0 6.2 6.1 6.1 5.7 5.8 5.8 6.0 6.0 6.0 6.1 6.2
6.2 6.1 6.1 6.3 6.5 6.6 6.5 6.6 6.5 6.3 5.3 6.1 5.6 5.9 5.8 5.7 5.7 5.8 5.9 6.0 6.1 6.3
6.2 6.1 6.2 6.4 6.5 6.6 6.6 6.4 6.6 6.2 6.0 6.0 6.1 5.8 5.6 5.5 5.6 5.8 5.9 6.0 6.2 6.3
6.3 6.2 6.2 6.5 6.7 6.4 6.3 6.6 6.0 6.3 5.8 5.9 5.7 5.5 5.6 5.5 5.5 5.6 5.9 5.9 6.1 6.0
6.1 6.3 6.5 6.5 6.4 6.2 6.4 6.2 6.2 6.2 5.8 6.0 5.5 5.5 5.4 5.4 5.5 5.7 5.8 5.8 5.8 5.8
6.3 6.4 6.4 6.3 6.5 5.9 6.3 5.5 6.0 5.9 5.7 5.8 5.3 5.2 5.4 5.6 5.9 6.0 5.8 5.9 5.8 5.8
6.0 6.1 6.0 6.1 6.3 6.6 6.0 5.9 5.9 5.8 5.6 5.1 5.1 5.5 5.5 5.7 5.9 5.8 6.0 5.5 5.6 5.5
6.1 6.0 6.1 6.2 6.4 6.2 5.9 6.0 5.5 5.0 5.0 5.5 5.3 5.4 5.5 5.9 6.0 5.7 5.7 5.5 5.5 5.4
6.1 6.2 5.7 5.8 6.2 5.8 5.4 5.2 5.2 4.8 5.1 5.1 5.3 5.5 5.8 5.7 5.7 5.5 5.5 5.5 5.3 5.2
6.1 6.4 5.9 5.3 6.0 5.4 5.6 5.5 5.1 5.3 5.2 5.1 5.4 5.5 5.5 5.5 5.5 5.4 5.4 5.2 5.0 5.1
5.0 4.7 4.9 5.5 5.4 5.0 4.8 4.7 4.9 5.0 5.3 5.3 5.5 5.4 5.3 5.4 5.3 5.4 5.0 5.2 5.2 4.9
5.5 5.4 4.9 4.9 5.2 4.8 4.8 5.2 5.0 5.1 5.3 5.3 5.0 5.1 5.4 5.3 5.2 5.3 5.3 5.1 4.9 4.7
Wind_Speed
15 10 9 11 9 9 10 10 12 10 8 9 10 8 7 4 4 5 4 5 3 2
12 13 12 12 12 9 9 9 12 11 10 7 8 7 6 4 5 5 4 4 3 2
13 13 13 12 13 11 10 13 12 11 12 8 8 6 6 5 5 5 3 3 4 2
12 13 13 13 12 12 12 13 12 11 9 10 8 7 6 6 6 5 4 2 2 2
15 14 13 13 13 13 14 13 14 12 10 9 7 6 6 5 5 5 3 2 2 2
15 14 13 13 14 15 16 14 13 10 10 9 7 7 6 6 5 3 2 1 2 3
14 13 13 13 14 14 14 14 12 11 10 8 6 6 6 5 4 3 3 2 1 2
12 13 13 13 12 12 11 10 11 10 9 7 7 5 5 4 3 4 3 4 4 2
14 13 14 14 13 12 11 9 9 7 7 7 5 11 9 5 3 3 3 4 5 5
15 15 13 15 15 11 9 6 4 5 4 6 6 9 8 7 3 3 3 4 5 5
16 15 12 13 13 11 7 6 4 5 4 5 5 8 7 8 4 3 4 5 4 4
13 12 11 9 10 7 9 5 4 4 5 5 5 7 6 5 3 4 5 4 5 6
11 10 9 8 8 4 4 4 5 4 5 7 5 6 3 4 2 3 3 5 5 11
9 9 4 5 5 4 5 5 4 4 2 4 4 1 2 4 2 3 3 3 4 4
Wind_Direction
147 151 157 164 164 168 168 155 151 146 144 133 132 133 128 124 127 127 129 135 134 135
144 153 160 161 162 164 163 144 141 136 130 127 132 138 139 129 128 128 137 145 138 135
147 153 151 153 157 160 152 142 134 137 135 145 132 138 131 127 135 126 122 138 142 150
148 146 149 155 155 154 148 133 131 131 151 135 134 130 128 131 141 134 137 120 160 188
138 144 148 153 153 153 139 135 146 149 140 138 123 136 134 133 130 140 147 169 183 227
136 148 146 146 144 142 140 143 133 136 137 127 134 121 120 125 118 111 111 208 212 234
146 138 137 138 136 136 138 141 141 133 130 117 121 114 108 98 84 69 46 11 318 247
119 122 123 116 118 116 125 122 117 119 121 120 116 116 102 89 77 50 9 349 332 289
106 107 103 105 99 93 91 87 103 112 116 129 117 116 103 98 77 38 0 321 314 292
104 103 103 101 93 85 76 87 83 102 109 102 108 118 107 80 66 21 337 312 304 304
98 93 101 106 116 116 121 135 173 129 113 121 128 112 90 71 51 12 347 335 338 335
103 112 112 112 117 143 159 163 117 124 112 109 123 123 95 93 63 18 341 335 340 322
111 111 129 137 143 102 115 129 110 120 134 134 144 154 108 88 97 4 325 298 283 307
117 115 103 94 100 117 122 114 121 115 132 136 155 165 39 341 148 248 272 287 296 298